Location: Gleizolles
(44.4833°N, 6.7667°E)
Time: 06:31:24
(UTC+00:00)

Transit 4A - Pass Details

Date: 28 June 2024
Orbit: 870 x 973 km, 66.8° (Epoch: 14 July)

Event Time Altitude Azimuth Distance (km) Brightness Sun altitude
Rises 21:16:14 0° 232° (SW) 3,458 10.8 -15.1°
Reaches altitude 10° 21:18:50 10° 239° (WSW) 2,517 10.2 -15.4°
Maximum altitude 21:24:20 43° 310° (NW) 1,209 9.0 -15.9°
Drops below altitude 10° 21:29:52 10° 22° (NNE) 2,532 10.7 -16.4°
Sets 21:32:31 0° 29° (NNE) 3,481 11.3 -16.6°
